Regional Weather Roundup
Issued by NWS Upton, NY

Current Version | Previous Version | Text Only | Print | Product List | Glossary On
Versions: 1 2 3 4 5 6 7 8 9 10 11 12 13 14 15 16 17 18 19 20 21 22 23 24 25 26 27
000
ASUS41 KOKX 250609
RWROKX

REGIONAL WEATHER ROUNDUP
NATIONAL WEATHER SERVICE NEW YORK NY
200 AM EDT TUE APR 25 2017

NOTE: "FAIR" INDICATES FEW OR NO CLOUDS BELOW 12,000 FEET WITH NO
SIGNIFICANT WEATHER AND/OR OBSTRUCTIONS TO VISIBILITY.

NYZ071-072-176-178-NJZ106-104-250700-
NEW YORK CITY METRO AREA

CITY           SKY/WX    TMP DP  RH WIND       PRES   REMARKS
Central Park   CLOUDY    50  46  86 E9        30.13F
Wall St Helipt CLOUDY    52  46  80 NE15      30.10F
Bronx Bot Gard   N/A     48  45  87 NE14      30.11F
LaGuardia APRT CLOUDY    50  46  86 NE16      30.10F
Kennedy INTL   CLOUDY    53  50  89 E12       30.10F
Breezy Point     N/A     50 N/A N/A E12G17      N/A
Newark/Liberty LGT RAIN  53  44  71 NE10      30.09F
Teterboro      CLOUDY    51  45  79 E5        30.10F
$$

NYZ177-179-078>081-250700-
LONG ISLAND NEW YORK

CITY           SKY/WX    TMP DP  RH WIND       PRES   REMARKS
Jones Beach      N/A     50 N/A N/A E18         N/A
Matinecock PT    N/A     48 N/A N/A E21         N/A
Farmingdale    CLOUDY    52  49  89 E12       30.10F
MacArthur/ISP  LGT RAIN  52  50  93 E10       30.11F
Shirley        LGT RAIN  50  49  96 VRB6      30.13F
Mt Sinai Harb    N/A    N/A N/A N/A NE7         N/A
Westhampton    LGT RAIN  50  47  89 E10       30.14F
East Hampton   LGT RAIN  48  47  94 E9        30.14F
Montauk          N/A     48  47  96 E7        30.17S
$$

NYZ052-065-067-250700-
HUDSON VALLEY

CITY           SKY/WX    TMP DP  RH WIND       PRES   REMARKS
White Plains   CLOUDY    50  45  83 E8        30.11F
Larchmont Harb   N/A     48 N/A N/A NE22        N/A
Croton O-T Hud   N/A     54 N/A N/A CALM        N/A
Newburgh       MOCLDY    54  37  54 E9        30.13F
Montgomery     CLOUDY    55  34  45 E5        30.12F
Poughkeepsie   CLOUDY    54  34  46 CALM      30.13S
Albany         CLOUDY    47  31  53 N6        30.17S
$$

NJZ001-105-106-008-010-013-015-019>022-104-250700-
NEW JERSEY

CITY           SKY/WX    TMP DP  RH WIND       PRES   REMARKS
Newark/Liberty LGT RAIN  53  44  71 NE10      30.09F
Teterboro      CLOUDY    51  45  79 E5        30.10F
Caldwell       CLOUDY    52  42  69 E12       30.10F
Somerville     CLOUDY    54  41  61 NE6       30.06F
Linden         CLOUDY    54  45  71 E14       30.09F
Sussex         CLOUDY    54  36  50 NE8       30.11F
Andover          N/A     53  37  54 VRB3      30.09F
Trenton        CLOUDY    51  48  89 E13       30.05F
Millville      CLOUDY    54  54 100 E16G22    29.97F
Atlantic City  CLOUDY    53  51  93 NE13G22   29.99F FOG
Wrightstown    CLOUDY    51  49  93 NE10      30.01F
Toms River     CLOUDY    51  49  92 NE12      30.05F
Belmar         LGT RAIN  49  48  97 NE12      30.07F
$$

PAZ047>061-062-071-250700-
EASTERN PENNSYLVANIA

CITY           SKY/WX    TMP DP  RH WIND       PRES   REMARKS
Philadelphia   CLOUDY    52  47  83 NE12      30.02F
Allentown      CLOUDY    54  38  54 E10       30.06F
Scranton       CLOUDY    57  32  38 VRB6      30.05S
$$

CTZ002-004>006-009-010-012-RIZ004-006-007-MAZ004-011-015-250700-
SOUTHERN NEW ENGLAND
 IN CT

CITY           SKY/WX    TMP DP  RH WIND       PRES   REMARKS
Bradley INTL   CLOUDY    54  36  50 E5        30.17F
Hartford       CLOUDY    52  40  63 CALM      30.17S
Danbury        CLOUDY    50  39  66 E7        30.15F
Wtrbury/Oxford CLOUDY    52  34  50 E7        30.16S
Bridgeport     LGT RAIN  51  46  83 E13       30.15F
Meriden        LGT RAIN  53  40  61 NE3       30.16F
New Haven      CLOUDY    51  47  86 E9        30.15S
Chester        CLOUDY    50  46  87 E5        30.16S
Groton         CLOUDY    52  47  83 E9        30.16S
Wilimantic     CLOUDY    54  41  61 CALM      30.18S

 IN RI

CITY           SKY/WX    TMP DP  RH WIND       PRES   REMARKS
Providence     LGT RAIN  50  47  89 NE5       30.20S
Block Island   CLOUDY    48  47  96 E9        30.17F
Westerly       CLOUDY    52  48  86 E9        30.18S
 IN MA

CITY           SKY/WX    TMP DP  RH WIND       PRES   REMARKS
Boston         NOT AVBL
Worcester      CLOUDY    50  35  56 E7        30.20R
Westfield      CLOUDY    52  43  71 CALM      30.17S
Provincetown   CLOUDY    46  44  93 E7        30.24R
Nantucket      CLOUDY    48  44  86 E15       30.18F
$$

ANZ330-335-338-340-345-350-353-355-250700-
COASTAL MARINE OBSERVATIONS


STATION/POSITION TIME  SKY/WX   TEMP    WIND        PRES    VSBY  WAVE
                                AIR SEA DIR/SP/G                  HT/PER
                 (UTC)          (F)     (DEG/KT/KT) (MB)    (MI)  (FT/S)
NY HARB ENTRANCE 0450            49 50   70/ 17/ 21 1019.1          4/ 5
20 S FIRE ISLAND 0550            48 48   60/ 17/ 21 1017.4          4/ 6
GREAT SOUTH BAY  0530            51 56   80/ 17/ 21   N/A
23 SSW MONTAUK P 0450            47 46              1021.2          3/10
15 E BARNEGAT LI 0530               50                N/A           5/ 8
HUDSON CANYON    0450            49 47   80/ 16/ 17 1017.2          5/ 7
KINGS POINT      0548            49 47   70/  3/  7 1019.4
EXECUTION ROCKS  NOT AVBL
CENTRAL LI SOUND 0545            47      70/ 10/ 12   N/A           1
EASTERN LI SOUND NOT AVBL
ROBBINS REEF     0548            51      40/ 14/ 14 1019.0
$$


>>>>>>>>>>>>>>>>>>>>>>>>>>>> KEY <<<<<<<<<<<<<<<<<<<<<<<<<<<
>                                                          <
>     SKY/WX - Sky Condition/Present Weather               <
>     TMP    - Temperature in Fahrenheit                   <
>     DP     - Dew Point in Fahrenheit                     <
>     RH     - Relative Humidity in Percent                <
>     WIND   - Direction (from) and Speed in MPH           <
>     PRES   - Mean Sea Level Pressure (inches of Hg)      <
>     WCI    - Wind Chill Index                            <
>     VSB    - VISIBILITY IN MILES                         <
>     HX     - HEAT INDEX                                  <
>     TC     - TEMPERATURE IN CELSIUS                      <
>     VRB    - VARIABLE WIND DIRECTION                     <
>                                                          <
>>>>>>>>>>>>>>>>>>>>>>>>>>>> KEY <<<<<<<<<<<<<<<<<<<<<<<<<<<




USA.gov is the U.S. government's official web portal to all federal, state and local government web resources and services.